GW6083 Weather Reports


time (UTC)temp
F
wind
direction
speed
knots
gust
knots
rain 1hr
in
rain 24hr
in
rain mn
in
humidity
%
barometer
mb
20260507202753 64 249 1.7 2.6 0.00 0.03 0.03 33 1001.1
20260507202249 64 349 1.7 4.3 0.00 0.03 0.03 34 1001.4
20260507201744 63 248 2.6 2.6 0.00 0.03 0.03 34 1001.2
20260507201241 63 351 2.6 4.3 0.00 0.03 0.03 35 1001.5
20260507200737 65 333 2.6 2.6 0.00 0.03 0.03 35 1001.6
20260507200233 64 240 2.6 2.6 0.00 0.03 0.03 34 1001.5
20260507195730 65 170 3.5 5.2 0.00 0.03 0.03 33 1001.4
20260507195227 65 252 0.9 2.6 0.00 0.03 0.03 33 1001.6
20260507194724 64 234 4.3 6.1 0.00 0.03 0.03 34 1001.5
20260507194220 65 317 3.5 4.3 0.00 0.03 0.03 33 1001.4
20260507193717 63 327 3.5 5.2 0.00 0.03 0.03 34 1001.5
20260507193214 64 226 1.7 2.6 0.00 0.03 0.03 34 1001.5
20260507192710 64 239 1.7 2.6 0.00 0.03 0.03 35 1001.6
20260507192207 64 21 5.2 6.1 0.00 0.03 0.03 36 1001.8
20260507191702 62 255 0.9 1.7 0.00 0.03 0.03 38 1001.8
20260507191200 65 267 1.7 2.6 0.00 0.03 0.03 36 1001.8
20260507190657 65 237 4.3 7.8 0.00 0.03 0.03 35 1001.8
20260507190155 65 27 1.7 2.6 0.00 0.03 0.03 38 1001.8
20260507185653 64 238 2.6 4.3 0.00 0.03 0.03 36 1001.7
20260507185150 65 270 7.8 11.3 0.00 0.03 0.03 36 1001.8
20260507184647 65 300 3.5 4.3 0.00 0.03 0.03 37 1001.9
20260507184145 64 213 2.6 4.3 0.00 0.03 0.03 36 1002.1
20260507183641 63 332 2.6 2.6 0.00 0.03 0.03 38 1001.8
20260507183139 62 218 0.9 0.9 0.00 0.03 0.03 38 1002.0
20260507182635 64 328 2.6 4.3 0.00 0.03 0.03 38 1002.1
20260507182131 64 319 2.6 5.2 0.00 0.03 0.03 38 1002.1
20260507181628 63 214 1.7 2.6 0.00 0.03 0.03 37 1002.2
20260507181124 63 221 2.6 4.3 0.00 0.03 0.03 37 1002.2
20260507180620 65 236 1.7 1.7 0.00 0.03 0.03 38 1002.4
20260507180118 64 212 2.6 4.3 0.00 0.03 0.03 36 1002.2
20260507175613 64 235 2.6 2.6 0.00 0.03 0.03 38 1002.3
20260507175111 63 26 4.3 6.1 0.00 0.03 0.03 37 1002.0
20260507174608 64 278 0.9 1.7 0.00 0.03 0.03 39 1002.0
20260507174106 64 224 2.6 4.3 0.00 0.03 0.03 38 1002.1
20260507173603 64 278 4.3 6.1 0.00 0.03 0.03 37 1002.2
20260507173100 63 217 2.6 2.6 0.00 0.03 0.03 37 1002.2
20260507172555 63 254 2.6 2.6 0.00 0.03 0.03 37 1002.1
20260507172053 64 331 4.3 6.1 0.00 0.03 0.03 37 1002.3
20260507171548 63 253 4.3 5.2 0.00 0.03 0.03 39 1002.2
20260507171046 63 212 1.7 2.6 0.00 0.03 0.03 40 1002.2
20260507170542 63 187 3.5 5.2 0.00 0.03 0.03 37 1002.6
20260507170039 63 214 1.7 2.6 0.00 0.03 0.03 40 1002.4
20260507165535 63 301 5.2 7.0 0.00 0.03 0.03 39 1002.6
20260507165032 63 282 2.6 2.6 0.00 0.03 0.03 43 1002.6
20260507164528 62 231 3.5 6.1 0.00 0.03 0.03 44 1002.4
20260507164025 61 48 1.7 2.6 0.00 0.03 0.03 45 1002.7
20260507163522 62 202 1.7 1.7 0.00 0.03 0.03 45 1002.6
20260507163021 62 255 1.7 2.6 0.00 0.03 0.03 45 1002.8
20260507162520 62 239 2.6 4.3 0.00 0.03 0.03 45 1002.8
20260507162018 61 202 2.6 2.6 0.00 0.03 0.03 50 1002.7
20260507161514 60 217 1.7 4.3 0.00 0.03 0.03 54 1002.9
20260507161011 62 209 0.9 0.9 0.00 0.03 0.03 55 1003.0
20260507160507 61 205 2.6 4.3 0.00 0.03 0.03 55 1002.9
20260507160003 60 184 3.5 5.2 0.00 0.03 0.03 57 1003.0
20260507155459 59 244 1.7 4.3 0.00 0.03 0.03 61 1002.9
20260507154956 58 336 3.5 4.3 0.00 0.03 0.03 60 1003.2
20260507154453 59 182 2.6 4.3 0.00 0.03 0.03 59 1003.3
20260507153950 60 339 2.6 2.6 0.00 0.03 0.03 58 1003.1
20260507153447 60 235 0.9 0.9 0.00 0.03 0.03 59 1003.3
20260507152943 59 250 0.9 1.7 0.00 0.03 0.03 59 1003.4
20260507152439 59 198 2.6 4.3 0.00 0.03 0.03 59 1003.4
20260507151935 58 216 1.7 2.6 0.00 0.03 0.03 59 1003.4
20260507151432 59 250 4.3 6.1 0.00 0.03 0.03 57 1003.6
20260507150929 60 225 2.6 2.6 0.00 0.03 0.03 57 1003.6
20260507150426 60 337 3.5 5.2 0.00 0.03 0.03 57 1003.6
20260507145922 60 206 0.0 0.9 0.00 0.03 0.03 56 1003.6
20260507145418 60 258 0.9 0.9 0.00 0.03 0.03 55 1003.5
20260507144915 60 201 0.9 1.7 0.00 0.03 0.03 55 1003.7
20260507144412 59 233 1.7 2.6 0.00 0.03 0.03 55 1003.6
20260507143908 59 220 1.7 1.7 0.00 0.03 0.03 57 1003.7
20260507143406 59 240 1.7 2.6 0.00 0.03 0.03 54 1004.0
20260507142902 59 227 1.7 2.6 0.00 0.03 0.03 59 1003.5
20260507142358 58 236 0.9 1.7 0.00 0.03 0.03 57 1003.8
20260507141856 58 293 1.7 1.7 0.00 0.03 0.03 55 1003.6
20260507141352 58 274 3.5 5.2 0.00 0.03 0.03 57 1003.5
20260507140848 57 190 0.9 0.9 0.00 0.03 0.03 59 1003.6
20260507140345 58 328 2.6 4.3 0.00 0.03 0.03 58 1003.6
20260507135843 58 190 2.6 6.1 0.00 0.03 0.03 58 1003.7
20260507135340 58 310 2.6 2.6 0.00 0.03 0.03 61 1003.5
20260507134837 57 338 2.6 2.6 0.00 0.03 0.03 62 1003.4
20260507134333 56 3 2.6 2.6 0.00 0.03 0.03 64 1003.4
20260507133829 56 67 0.9 0.9 0.00 0.03 0.03 63 1003.6
20260507133325 56 10 4.3 5.2 0.00 0.03 0.03 61 1003.6
20260507132824 56 301 2.6 2.6 0.00 0.03 0.03 63 1003.9
20260507132319 55 190 2.6 4.3 0.00 0.03 0.03 65 1004.0
20260507131817 55 223 0.9 0.9 0.00 0.03 0.03 65 1004.4
20260507131313 56 222 1.7 2.6 0.00 0.03 0.03 66 1004.3
20260507130810 55 257 0.9 1.7 0.00 0.03 0.03 66 1004.1
20260507130308 55 251 0.9 1.7 0.00 0.03 0.03 66 1004.0
20260507125807 55 197 0.0 0.9 0.00 0.03 0.03 69 1004.0
20260507125306 54 202 0.0 0.9 0.00 0.03 0.03 71 1004.0
20260507124801 54 357 4.3 5.2 0.00 0.03 0.03 70 1004.1
20260507124257 53 260 1.7 1.7 0.00 0.03 0.03 72 1004.3
20260507123755 53 224 1.7 2.6 0.00 0.03 0.03 74 1004.2
20260507123253 53 229 0.9 0.9 0.00 0.03 0.03 75 1004.1
20260507122748 52 86 2.6 4.3 0.00 0.03 0.03 76 1004.3
20260507122244 52 300 0.9 1.7 0.00 0.03 0.03 76 1004.0
20260507121740 52 212 1.7 1.7 0.00 0.03 0.03 76 1004.4
20260507121236 52 224 1.7 1.7 0.00 0.03 0.03 77 1004.4
20260507120732 52 298 1.7 1.7 0.00 0.03 0.03 78 1004.3
20260507120229 52 250 0.0 0.9 0.00 0.03 0.03 79 1004.5
20260507115725 51 221 0.9 1.7 0.00 0.03 0.03 80 1004.3
20260507115221 51 204 1.7 1.7 0.00 0.03 0.03 81 1004.2
20260507114717 51 192 0.0 0.0 0.00 0.03 0.03 83 1004.4
20260507114215 50 213 0.0 0.0 0.00 0.03 0.03 84 1004.2
20260507113712 49 294 1.7 1.7 0.00 0.03 0.03 85 1004.1
20260507113209 49 90 0.0 0.9 0.00 0.03 0.03 85 1003.9
20260507112706 49 182 0.9 1.7 0.00 0.03 0.03 85 1003.9
20260507112203 49 177 0.9 0.9 0.00 0.03 0.03 85 1003.9
20260507111700 49 203 0.0 0.0 0.00 0.03 0.03 84 1004.0
20260507111157 48 239 0.9 0.9 0.00 0.03 0.03 84 1004.2
20260507110653 48 218 0.9 0.9 0.00 0.03 0.03 85 1004.2
20260507110150 48 223 0.0 0.9 0.00 0.03 0.03 84 1003.8
20260507105647 48 223 1.7 2.6 0.00 0.03 0.03 85 1003.8
20260507105142 48 190 0.0 0.9 0.00 0.03 0.03 85 1003.7
20260507104640 48 182 0.0 0.0 0.00 0.03 0.03 85 1003.6
20260507104136 48 159 0.9 1.7 0.00 0.03 0.03 84 1003.6
20260507103632 48 205 0.0 0.9 0.00 0.03 0.03 85 1003.3
20260507103130 48 208 0.9 0.9 0.00 0.03 0.03 85 1003.5
20260507102626 48 218 0.9 0.9 0.00 0.03 0.03 85 1003.4
20260507102122 48 255 0.0 0.9 0.00 0.03 0.03 85 1003.4
20260507101618 48 210 0.0 0.9 0.00 0.03 0.03 85 1003.7
20260507101114 48 214 0.0 0.0 0.00 0.03 0.03 86 1003.2
20260507100612 48 203 1.7 2.6 0.00 0.03 0.03 86 1003.5
20260507100110 48 202 0.0 0.9 0.00 0.03 0.03 86 1003.4
20260507095607 48 211 0.9 0.9 0.00 0.03 0.03 87 1003.6
20260507095104 48 252 0.9 0.9 0.00 0.03 0.03 88 1003.5
20260507094600 48 283 1.7 1.7 0.00 0.03 0.03 88 1003.6
20260507094057 48 269 0.0 0.9 0.00 0.03 0.03 89 1003.3
20260507093554 48 214 0.0 0.9 0.00 0.03 0.03 89 1003.5
20260507093053 48 214 0.0 0.0 0.00 0.03 0.03 89 1003.3
20260507092549 48 209 0.0 0.0 0.00 0.03 0.03 90 1003.7
20260507092046 48 202 0.0 0.9 0.00 0.03 0.03 90 1003.6
20260507091543 48 206 0.0 0.0 0.00 0.03 0.03 91 1003.6
20260507091039 48 217 0.9 0.9 0.00 0.03 0.03 91 1003.8
20260507090534 48 203 0.0 0.9 0.00 0.03 0.03 91 1003.4
20260507090032 48 178 0.9 0.9 0.00 0.03 0.03 91 1003.6
20260507085529 48 210 0.0 0.9 0.00 0.03 0.03 91 1003.3
20260507085025 48 218 0.9 0.9 0.00 0.03 0.03 91 1003.4
20260507084522 48 205 0.0 0.0 0.00 0.03 0.03 90 1003.6
20260507084019 48 230 0.9 0.9 0.05 0.03 0.03 90 1003.3
20260507083515 49 218 0.0 0.9 0.05 0.03 0.03 90 1003.1
20260507083013 49 256 0.9 1.7 0.00 0.02 0.02 90 1003.2
20260507082509 49 225 0.9 1.7 0.00 0.02 0.02 89 1003.1
20260507082005 49 204 0.0 0.9 0.00 0.02 0.02 89 1003.1
20260507081501 49 211 0.9 0.9 0.00 0.02 0.02 89 1003.3
20260507080958 50 206 0.9 0.9 0.00 0.02 0.02 88 1002.9
20260507080454 50 254 0.9 1.7 0.07 0.02 0.02 87 1003.3
20260507075949 50 332 1.7 2.6 0.00 0.01 0.01 86 1003.1
20260507075446 50 202 0.9 0.9 0.00 0.01 0.01 86 1003.3
20260507074943 50 236 1.7 1.7 0.00 0.01 0.01 86 1003.2
20260507074440 50 244 1.7 1.7 0.00 0.01 0.01 87 1003.4
20260507073938 50 208 0.9 0.9 0.00 0.01 0.01 87 1003.2
20260507073434 50 219 0.0 0.9 0.00 0.01 0.01 87 1002.7
20260507072930 50 200 2.6 4.3 0.00 0.01 0.01 87 1002.9
20260507072428 50 234 0.9 0.9 0.00 0.01 0.01 87 1002.9
20260507071926 50 252 2.6 2.6 0.00 0.01 0.01 87 1002.5
20260507071422 50 228 0.9 0.9 0.00 0.01 0.01 88 1002.7
20260507070919 50 213 0.9 0.9 0.00 0.01 0.01 88 1003.0
20260507070416 50 218 0.9 0.9 0.00 0.01 0.01 88 1002.8
20260507065913 50 186 0.0 0.9 0.00 0.01 0.01 89 1002.9
20260507065410 50 218 0.9 0.9 0.00 0.01 0.01 90 1002.5
20260507064907 50 215 0.9 1.7 0.00 0.01 0.01 91 1002.6
20260507064405 50 258 1.7 1.7 0.00 0.01 0.01 93 1002.6
20260507063902 50 197 0.0 0.9 0.00 0.01 0.01 94 1002.8
20260507063359 50 209 0.9 0.9 0.00 0.01 0.01 95 1002.6
20260507062856 50 212 1.7 1.7 0.00 0.01 0.01 96 1002.4
20260507062353 50 217 0.9 0.9 0.00 0.01 0.01 97 1002.3
20260507061851 50 221 1.7 1.7 0.00 0.01 0.01 97 1002.4
20260507061348 50 210 0.0 0.0 0.00 0.01 0.01 97 1002.4
20260507060847 50 212 0.0 0.9 0.00 0.01 0.01 97 1002.3
20260507060343 50 215 0.0 0.0 0.00 0.01 0.01 97 1002.5
20260507055840 50 222 1.7 1.7 0.00 0.01 0.01 97 1002.8
20260507055335 50 218 0.9 1.7 0.00 0.01 0.01 97 1002.6
20260507054832 50 266 1.7 1.7 0.00 0.01 0.01 97 1002.7
20260507054328 51 215 0.0 0.0 0.00 0.01 0.01 98 1002.7
20260507053826 51 217 0.9 1.7 0.00 0.01 0.01 98 1002.9
20260507053323 51 211 0.9 0.9 0.00 0.01 0.01 98 1002.9
20260507052822 51 261 0.9 0.9 0.00 0.01 0.01 98 1002.8
20260507052318 51 195 0.0 0.0 0.00 0.01 0.01 98 1003.1
20260507051816 51 207 0.0 0.9 0.00 0.01 0.01 98 1003.1
20260507051313 51 211 0.9 0.9 0.00 0.01 0.01 98 1003.1
20260507050810 52 206 0.9 1.7 0.00 0.01 0.01 98 1002.8
20260507050306 52 229 0.9 1.7 0.00 0.01 0.01 98 1002.9
20260507045803 52 236 0.0 0.9 0.00 0.01 0.01 98 1002.8
20260507045259 52 204 0.0 0.0 0.00 0.01 0.01 98 1002.8
20260507044757 52 228 0.9 0.9 0.00 0.01 0.01 98 1002.8
20260507044253 52 216 0.0 0.0 0.00 0.01 0.01 98 1002.7
20260507043749 52 194 0.9 1.7 0.00 0.01 0.01 98 1002.9
20260507043246 52 218 0.0 0.9 0.00 0.01 0.01 98 1002.7
20260507042742 52 216 0.9 0.9 0.00 0.01 0.01 98 1002.6
20260507042237 52 266 1.7 1.7 0.00 0.01 0.01 99 1003.0
20260507041736 52 188 0.0 0.0 0.05 0.01 0.01 99 1003.0
20260507041232 53 217 0.9 0.9 0.05 0.01 0.01 99 1002.8
20260507040729 53 211 0.9 0.9 0.00 0.00 0.00 99 1002.9
20260507040225 53 231 2.6 4.3 0.00 0.00 0.00 99 1002.8
20260507035721 54 348 1.7 5.2 0.00 0.33 0.33 99 1002.6
20260507035217 55 333 1.7 1.7 0.00 0.33 0.33 99 1002.5
20260507034714 56 203 0.0 0.0 0.00 0.33 0.33 99 1002.2
20260507034211 56 190 0.9 1.7 0.00 0.33 0.33 99 1002.0
20260507033710 57 217 0.9 0.9 0.00 0.33 0.33 99 1001.9
20260507033207 57 239 1.7 2.6 0.00 0.33 0.33 99 1001.8
20260507032704 58 206 2.6 2.6 0.00 0.33 0.33 99 1001.7
20260507032159 59 202 0.0 0.9 0.00 0.33 0.33 99 1001.6
20260507031657 59 226 0.9 0.9 0.00 0.33 0.33 99 1001.6
20260507031153 59 229 1.7 2.6 0.00 0.33 0.33 99 1001.6
20260507030650 59 217 0.0 0.9 0.00 0.33 0.33 99 1001.7
20260507030148 59 217 0.0 0.9 0.00 0.33 0.33 99 1001.6
20260507025645 59 213 0.9 0.9 0.00 0.33 0.33 99 1001.3
20260507025142 59 213 2.6 2.6 0.00 0.33 0.33 99 1001.5
20260507024640 59 220 0.9 0.9 0.00 0.33 0.33 99 1001.3
20260507024137 59 166 1.7 2.6 0.00 0.33 0.33 99 1001.3
20260507023632 59 243 4.3 7.0 0.00 0.33 0.33 99 1001.3
20260507023130 59 209 0.9 1.7 0.00 0.33 0.33 99 1001.5
20260507022627 59 219 0.9 1.7 0.00 0.33 0.33 99 1001.2
20260507022122 59 217 2.6 2.6 0.00 0.33 0.33 99 1001.1
20260507021619 59 219 1.7 1.7 0.00 0.33 0.33 99 1001.3
20260507021115 59 203 1.7 4.3 0.00 0.33 0.33 99 1001.0
20260507020613 59 209 0.9 0.9 0.00 0.33 0.33 99 1001.3
20260507020109 59 213 4.3 5.2 0.00 0.33 0.33 99 1001.3
20260507015607 59 204 0.0 0.0 0.00 0.33 0.33 99 1001.6
20260507015104 59 208 2.6 4.3 0.00 0.33 0.33 99 1001.7
20260507014601 59 198 0.9 0.9 0.00 0.33 0.33 99 1001.4
20260507014056 59 211 0.9 0.9 0.00 0.33 0.33 99 1001.5
20260507013553 59 203 0.9 0.9 0.00 0.33 0.33 99 1001.3
20260507013051 59 216 0.0 0.0 0.00 0.33 0.33 99 1001.4
20260507012548 59 191 1.7 1.7 0.00 0.33 0.33 99 1001.5
20260507012044 59 215 1.7 2.6 0.00 0.33 0.33 99 1001.4
20260507011542 59 190 0.9 1.7 0.00 0.33 0.33 99 1001.6
20260507011038 59 213 1.7 1.7 0.00 0.33 0.33 99 1001.5
20260507010532 59 221 0.9 0.9 0.00 0.33 0.33 99 1001.7
20260507010029 59 207 0.0 0.0 0.00 0.33 0.33 99 1001.7
20260507005526 59 215 0.9 0.9 0.00 0.33 0.33 99 1001.6
20260507005023 59 222 4.3 6.1 0.00 0.33 0.33 99 1001.7
20260507004520 59 210 3.5 4.3 0.00 0.33 0.33 99 1001.5
20260507004017 59 221 2.6 4.3 0.00 0.33 0.33 99 1001.2
20260507003512 59 223 4.3 5.2 0.00 0.33 0.33 99 1001.5
20260507003008 59 161 2.6 2.6 0.00 0.33 0.33 99 1001.7
20260507002504 59 209 0.0 0.9 0.00 0.33 0.33 99 1001.4
20260507002001 59 223 0.9 0.9 0.00 0.33 0.33 99 1001.5
20260507001457 59 223 4.3 6.1 0.00 0.33 0.33 99 1001.5
20260507000955 59 181 0.9 1.7 0.00 0.33 0.33 99 1001.5
20260507000450 59 221 2.6 2.6 0.00 0.33 0.33 99 1001.2
20260506235946 59 197 0.0 0.0 0.07 0.33 0.33 99 1001.1
20260506235444 59 199 2.6 2.6 0.07 0.33 0.33 99 1001.4
20260506234939 59 181 0.9 0.9 0.00 0.32 0.32 99 1001.2
20260506234437 59 198 0.0 0.0 0.00 0.32 0.32 99 1001.2
20260506233934 59 226 0.0 0.9 0.00 0.32 0.32 99 1001.2
20260506233431 59 212 0.9 0.9 0.05 0.32 0.32 99 1001.4
20260506232927 59 197 0.0 0.9 0.19 0.32 0.32 99 1001.3
20260506232424 59 205 0.0 0.0 0.19 0.31 0.31 99 1001.3
20260506231919 59 176 0.9 0.9 0.05 0.29 0.29 99 1001.4
20260506231417 59 194 0.9 0.9 0.07 0.28 0.28 99 1001.2
20260506230914 59 203 0.0 0.9 0.12 0.28 0.28 99 1001.5
20260506230411 59 197 0.9 1.7 0.05 0.27 0.27 99 1001.7
20260506225907 59 162 0.9 0.9 0.07 0.26 0.26 99 1001.6
20260506225405 60 212 0.9 0.9 0.12 0.26 0.26 99 1001.4
20260506224901 60 171 1.7 1.7 0.12 0.25 0.25 99 1001.7
20260506224359 60 175 0.0 0.9 0.12 0.24 0.24 99 1001.4
20260506223855 60 218 2.6 2.6 0.17 0.23 0.23 99 1001.6
20260506223350 60 193 0.0 0.9 0.12 0.22 0.22 99 1001.6
20260506222848 60 202 0.0 0.0 0.07 0.20 0.20 98 1001.9
20260506222343 60 239 1.7 2.6 0.00 0.19 0.19 98 1001.6
20260506221841 60 230 4.3 5.2 0.05 0.19 0.19 98 1001.4
20260506221339 60 183 0.9 1.7 0.05 0.19 0.19 98 1001.6
20260506220836 60 211 3.5 5.2 0.00 0.18 0.18 98 1001.8
20260506220331 60 196 0.0 0.9 0.00 0.18 0.18 98 1001.9
20260506215828 60 216 3.5 6.1 0.00 0.18 0.18 98 1002.0
20260506215324 60 231 1.7 1.7 0.00 0.18 0.18 98 1002.0
20260506214820 60 169 1.7 2.6 0.00 0.18 0.18 98 1001.9
20260506214317 60 213 3.5 5.2 0.00 0.18 0.18 98 1002.1
20260506213815 60 101 2.6 4.3 0.00 0.18 0.18 98 1002.1
20260506213312 60 202 0.0 0.0 0.07 0.18 0.18 98 1002.1
20260506212810 60 193 0.0 0.0 0.07 0.18 0.18 98 1002.0
20260506212306 60 185 2.6 4.3 0.00 0.17 0.17 97 1002.4
20260506211800 60 215 2.6 2.6 0.00 0.17 0.17 97 1002.4
20260506211257 60 205 0.9 1.7 0.07 0.17 0.17 97 1002.2
20260506210754 61 197 1.7 2.6 0.12 0.17 0.17 97 1002.6
20260506210251 61 215 1.7 1.7 0.17 0.16 0.16 97 1002.5
20260506205748 61 187 1.7 2.6 0.12 0.15 0.15 97 1002.6
20260506205244 61 176 2.6 2.6 0.12 0.14 0.14 97 1002.3
20260506204741 61 203 0.0 0.0 0.12 0.13 0.13 97 1002.5
20260506204238 61 208 1.7 1.7 0.12 0.12 0.12 96 1002.6
20260506203736 61 215 0.9 0.9 0.07 0.11 0.11 96 1002.5
20260506203233 61 161 1.7 1.7 0.12 0.11 0.11 96 1002.4